When you browse on this site, cookies collect data to enhance your experience and personalize the content and advertising you see.
Visit our Privacy Policy to learn more. By continuing to use the site, you agree to this use of cookies and data.
  • In Portugal
  • List of Countries
  • For 7 days
  • Water Temperature
  • Weather Map
  • Weather Widgets
  • user-avatar
    Login

    Hourly Weather Ruse

    Today, 30 March, Monday

    Time Temperature Precipitation Wind Pressure Humidity
    00:00 +10°C° 0 mm 3 mps 751 mmHg 69%
    01:00 +9°C° 0 mm 3 mps 751 mmHg 71%
    02:00 +9°C° 0 mm 3 mps 751 mmHg 72%
    03:00 +8°C° 0 mm 3 mps 751 mmHg 73%
    04:00 +8°C° 0 mm 3 mps 751 mmHg 73%
    05:00 +8°C° 0 mm 3 mps 751 mmHg 74%
    06:00 +9°C° 0 mm 3 mps 751 mmHg 72%
    07:00 +10°C° 0 mm 4 mps 751 mmHg 70%
    08:00 +10°C° 0 mm 4 mps 751 mmHg 68%
    09:00 +12°C° 0 mm 4 mps 752 mmHg 64%
    10:00 +13°C° 0 mm 5 mps 752 mmHg 60%
    11:00 +15°C° 0 mm 5 mps 752 mmHg 56%
    12:00 +17°C° 0 mm 4 mps 751 mmHg 53%
    13:00 +18°C° 0 mm 4 mps 751 mmHg 50%
    14:00 +18°C° 0 mm 4 mps 751 mmHg 47%
    15:00 +18°C° 0.1 mm 3 mps 751 mmHg 47%
    16:00 +18°C° 0.1 mm 3 mps 751 mmHg 47%
    17:00 +18°C° 0.1 mm 3 mps 751 mmHg 48%
    18:00 +16°C° 0.1 mm 3 mps 751 mmHg 56%
    19:00 +13°C° 0.1 mm 3 mps 752 mmHg 64%
    20:00 +11°C° 0.1 mm 3 mps 752 mmHg 72%
    21:00 +11°C° 0 mm 3 mps 753 mmHg 75%
    22:00 +10°C° 0 mm 3 mps 753 mmHg 78%
    23:00 +9°C° 0 mm 3 mps 753 mmHg 80%

    Tomorrow, 31 March, Tuesday

    Time Temperature Precipitation Wind Pressure Humidity
    00:00 +8°C° 0 mm 3 mps 754 mmHg 82%
    01:00 +8°C° 0 mm 3 mps 754 mmHg 83%
    02:00 +7°C° 0 mm 2 mps 754 mmHg 84%
    03:00 +7°C° 0 mm 2 mps 754 mmHg 84%
    04:00 +7°C° 0 mm 3 mps 755 mmHg 83%
    05:00 +5°C° 0 mm 3 mps 755 mmHg 83%
    06:00 +5°C° 0 mm 3 mps 755 mmHg 80%
    07:00 +7°C° 0 mm 3 mps 755 mmHg 78%
    08:00 +7°C° 0 mm 3 mps 756 mmHg 76%
    09:00 +6°C° 0 mm 4 mps 756 mmHg 75%
    10:00 +6°C° 0 mm 4 mps 756 mmHg 75%
    11:00 +6°C° 0 mm 5 mps 757 mmHg 75%
    12:00 +6°C° 0 mm 5 mps 757 mmHg 77%
    13:00 +5°C° 0 mm 5 mps 756 mmHg 79%
    14:00 +5°C° 0 mm 5 mps 756 mmHg 81%
    15:00 +5°C° 0 mm 5 mps 756 mmHg 81%
    16:00 +5°C° 0 mm 5 mps 757 mmHg 81%
    17:00 +5°C° 0 mm 5 mps 757 mmHg 81%
    18:00 +3°C° 0 mm 5 mps 757 mmHg 82%
    19:00 +3°C° 0 mm 5 mps 757 mmHg 83%
    20:00 +2°C° 0 mm 5 mps 757 mmHg 84%
    21:00 +2°C° 0.1 mm 5 mps 758 mmHg 85%
    22:00 +1°C° 0.1 mm 6 mps 758 mmHg 87%
    23:00 +1°C° 0.1 mm 6 mps 758 mmHg 88%

    Day after tomorrow, 1 April, Wednesday

    Time Temperature Precipitation Wind Pressure Humidity
    00:00 +1°C° 0.1 mm 5 mps 758 mmHg 82%
    01:00 +1°C° 0.1 mm 5 mps 758 mmHg 76%
    02:00 +1°C° 0.1 mm 4 mps 758 mmHg 70%
    03:00 +1°C° 0 mm 4 mps 758 mmHg 67%
    04:00 0°C° 0 mm 4 mps 758 mmHg 63%
    05:00 0°C° 0 mm 4 mps 758 mmHg 60%
    06:00 0°C° 0 mm 4 mps 758 mmHg 59%
    07:00 +1°C° 0 mm 5 mps 759 mmHg 58%
    08:00 +1°C° 0 mm 6 mps 759 mmHg 57%
    09:00 +2°C° 0 mm 6 mps 759 mmHg 61%
    10:00 +2°C° 0 mm 5 mps 759 mmHg 65%
    11:00 +2°C° 0 mm 5 mps 759 mmHg 69%
    12:00 +3°C° 0.1 mm 5 mps 759 mmHg 69%
    13:00 +5°C° 0.1 mm 5 mps 759 mmHg 68%
    14:00 +5°C° 0.1 mm 5 mps 758 mmHg 68%
    15:00 +5°C° 0 mm 5 mps 758 mmHg 65%
    16:00 +5°C° 0 mm 5 mps 758 mmHg 62%
    17:00 +6°C° 0 mm 4 mps 757 mmHg 59%
    18:00 +5°C° 0 mm 3 mps 758 mmHg 64%
    19:00 +4°C° 0 mm 3 mps 758 mmHg 68%
    20:00 +4°C° 0 mm 2 mps 758 mmHg 72%
    21:00 +3°C° 0 mm 2 mps 758 mmHg 73%
    22:00 +3°C° 0 mm 2 mps 758 mmHg 73%
    23:00 +2°C° 0 mm 2 mps 758 mmHg 73%

    2 April, Thursday

    Time Temperature Precipitation Wind Pressure Humidity
    00:00 +3°C° 0 mm 1 mps 758 mmHg 73%
    01:00 +3°C° 0 mm 1 mps 758 mmHg 72%
    02:00 +2°C° 0 mm 1 mps 758 mmHg 71%
    03:00 +2°C° 0 mm 1 mps 758 mmHg 71%
    04:00 +1°C° 0 mm 1 mps 758 mmHg 70%
    05:00 0°C° 0 mm 1 mps 758 mmHg 70%
    06:00 +2°C° 0 mm 1 mps 758 mmHg 64%
    07:00 +3°C° 0 mm 1 mps 758 mmHg 58%
    08:00 +3°C° 0 mm 0 mps 758 mmHg 52%
    09:00 +5°C° 0 mm 1 mps 758 mmHg 48%
    10:00 +7°C° 0 mm 1 mps 757 mmHg 43%
    11:00 +9°C° 0 mm 1 mps 757 mmHg 38%
    12:00 +9°C° 0 mm 1 mps 757 mmHg 37%
    13:00 +10°C° 0 mm 1 mps 756 mmHg 35%
    14:00 +11°C° 0 mm 1 mps 756 mmHg 34%
    15:00 +11°C° 0 mm 1 mps 756 mmHg 35%
    16:00 +11°C° 0 mm 1 mps 755 mmHg 35%
    17:00 +11°C° 0 mm 1 mps 755 mmHg 36%
    18:00 +10°C° 0 mm 1 mps 755 mmHg 39%
    19:00 +8°C° 0 mm 1 mps 755 mmHg 43%
    20:00 +6°C° 0 mm 0 mps 756 mmHg 47%
    21:00 +5°C° 0 mm 0 mps 756 mmHg 49%
    22:00 +6°C° 0 mm 1 mps 756 mmHg 51%
    23:00 +5°C° 0 mm 1 mps 756 mmHg 53%

    3 April, Friday

    Time Temperature Precipitation Wind Pressure Humidity
    00:00 +5°C° 0 mm 1 mps 756 mmHg 56%
    01:00 +4°C° 0 mm 1 mps 756 mmHg 58%
    02:00 +4°C° 0 mm 1 mps 756 mmHg 61%
    03:00 +4°C° 0 mm 1 mps 756 mmHg 63%
    04:00 +3°C° 0 mm 1 mps 756 mmHg 65%
    05:00 +3°C° 0 mm 1 mps 755 mmHg 68%
    06:00 +4°C° 0 mm 1 mps 755 mmHg 66%
    07:00 +6°C° 0 mm 1 mps 756 mmHg 63%
    08:00 +7°C° 0 mm 1 mps 756 mmHg 61%
    09:00 +9°C° 0 mm 1 mps 755 mmHg 58%
    10:00 +10°C° 0 mm 1 mps 755 mmHg 54%
    11:00 +12°C° 0 mm 1 mps 755 mmHg 50%
    12:00 +13°C° 0 mm 1 mps 755 mmHg 48%
    13:00 +14°C° 0 mm 2 mps 754 mmHg 46%
    14:00 +15°C° 0 mm 2 mps 754 mmHg 44%
    15:00 +15°C° 0 mm 2 mps 754 mmHg 45%
    16:00 +14°C° 0 mm 3 mps 754 mmHg 46%
    17:00 +14°C° 0 mm 3 mps 754 mmHg 48%
    18:00 +13°C° 0 mm 2 mps 754 mmHg 53%
    19:00 +12°C° 0 mm 2 mps 754 mmHg 59%
    20:00 +10°C° 0 mm 1 mps 755 mmHg 65%
    21:00 +9°C° 0 mm 1 mps 755 mmHg 67%
    22:00 +9°C° 0 mm 1 mps 756 mmHg 68%
    23:00 +9°C° 0 mm 1 mps 756 mmHg 70%

    4 April, Saturday

    Time Temperature Precipitation Wind Pressure Humidity
    00:00 +8°C° 0 mm 1 mps 756 mmHg 72%
    01:00 +8°C° 0 mm 1 mps 757 mmHg 74%
    02:00 +7°C° 0 mm 1 mps 757 mmHg 77%
    03:00 +7°C° 0 mm 1 mps 757 mmHg 78%
    04:00 +7°C° 0 mm 1 mps 757 mmHg 79%
    05:00 +6°C° 0 mm 2 mps 758 mmHg 81%
    06:00 +6°C° 0 mm 2 mps 758 mmHg 78%
    07:00 +7°C° 0 mm 3 mps 758 mmHg 75%
    08:00 +8°C° 0 mm 3 mps 759 mmHg 72%
    09:00 +10°C° 0 mm 3 mps 759 mmHg 65%
    10:00 +12°C° 0 mm 3 mps 759 mmHg 58%
    11:00 +14°C° 0 mm 3 mps 759 mmHg 51%
    12:00 +15°C° 0 mm 4 mps 759 mmHg 48%
    13:00 +15°C° 0 mm 4 mps 760 mmHg 44%
    14:00 +17°C° 0 mm 4 mps 760 mmHg 41%
    15:00 +17°C° 0 mm 4 mps 760 mmHg 42%
    16:00 +17°C° 0 mm 4 mps 760 mmHg 42%
    17:00 +17°C° 0 mm 3 mps 760 mmHg 43%
    18:00 +14°C° 0 mm 3 mps 760 mmHg 48%
    19:00 +14°C° 0 mm 2 mps 761 mmHg 53%
    20:00 +12°C° 0 mm 1 mps 762 mmHg 58%
    21:00 +11°C° 0 mm 1 mps 763 mmHg 59%
    22:00 +10°C° 0 mm 2 mps 763 mmHg 60%
    23:00 +9°C° 0 mm 2 mps 764 mmHg 61%
    Show more